Location: Kuppenheim
(48.8299°N, 8.2568°E)
Time: 07:50:31
(UTC+00:00)

FALCON 9 DEB - Pass Details

Date: 20 June 2021
Orbit: 359 x 373 km, 53.0° (Epoch: 26 July)

Event Time Altitude Azimuth Distance (km) Brightness Sun altitude
Rises 02:25:08 0° 293° (WNW) 2,253 6.6 -7.7°
Reaches altitude 10° 02:27:15 10° 286° (WNW) 1,395 5.5 -7.5°
Maximum altitude 02:30:12 41° 214° (SW) 559 3.2 -7.2°
Drops below altitude 10° 02:33:08 10° 142° (SE) 1,378 5.6 -6.8°
Sets 02:35:13 0° 135° (SE) 2,220 6.7 -6.6°
